NSZ2029 ESSA-EVRA

Flight info

Callsign NSZ2029
Flight time N/A
Altitude 33000
Route BABAP P156 NEKLA DCT RUDNI DCT LAPSA
Aircraft B738/M-SDE2E3FGHIRWXY/LB1

Departure

Time N/A
Airport Stockholm-Arlanda Airport (ESSA)

Arrival

Time 2026-05-01 07:38
Airport Riga International Airport (EVRA)
Time Latitude Longitude Altitude Speed Heading
2026-05-01 07:23 57.18919 22.82519 11921 ft 359 kts 141°
2026-05-01 07:23 57.14840 22.87684 11291 ft 352 kts 142°
2026-05-01 07:24 57.12837 22.90213 10969 ft 348 kts 142°
2026-05-01 07:24 57.10853 22.92717 10673 ft 343 kts 142°
2026-05-01 07:24 57.08912 22.95209 10459 ft 335 kts 137°
2026-05-01 07:24 57.07344 22.98252 10225 ft 324 kts 124°
2026-05-01 07:25 57.05959 23.01462 9965 ft 318 kts 124°
2026-05-01 07:25 57.04605 23.04616 9698 ft 308 kts 123°
2026-05-01 07:25 57.03313 23.07608 9419 ft 298 kts 123°
2026-05-01 07:25 57.02034 23.10548 9131 ft 291 kts 124°
2026-05-01 07:26 57.00783 23.13407 8851 ft 284 kts 124°
2026-05-01 07:26 56.99555 23.16200 8592 ft 279 kts 124°
2026-05-01 07:26 56.98336 23.18965 8334 ft 278 kts 124°
2026-05-01 07:26 56.97123 23.21709 8089 ft 277 kts 124°
2026-05-01 07:27 56.95907 23.24454 7853 ft 279 kts 125°
2026-05-01 07:27 56.94678 23.27222 7608 ft 280 kts 125°
2026-05-01 07:27 56.93448 23.29987 7360 ft 280 kts 125°
2026-05-01 07:27 56.92219 23.32740 7116 ft 278 kts 125°
2026-05-01 07:28 56.90998 23.35476 6877 ft 277 kts 126°
2026-05-01 07:28 56.89777 23.38206 6618 ft 277 kts 126°
2026-05-01 07:28 56.88560 23.40925 6380 ft 276 kts 126°
2026-05-01 07:28 56.87342 23.43644 6107 ft 276 kts 126°
2026-05-01 07:29 56.86132 23.46341 5859 ft 275 kts 126°
2026-05-01 07:29 56.84917 23.49045 5600 ft 274 kts 126°
2026-05-01 07:29 56.83710 23.51728 5345 ft 272 kts 127°
2026-05-01 07:29 56.82517 23.54377 5085 ft 268 kts 127°
2026-05-01 07:30 56.81337 23.56997 4817 ft 267 kts 127°
2026-05-01 07:30 56.80159 23.59617 4585 ft 268 kts 127°
2026-05-01 07:30 56.78971 23.62238 4314 ft 268 kts 127°
2026-05-01 07:30 56.77783 23.64864 4094 ft 268 kts 127°
2026-05-01 07:31 56.76607 23.67466 4020 ft 264 kts 127°
2026-05-01 07:31 56.73159 23.75274 3979 ft 258 kts 113°
2026-05-01 07:32 56.72578 23.81446 3638 ft 246 kts 91°
2026-05-01 07:32 56.72438 23.84468 3447 ft 239 kts 90°
2026-05-01 07:33 56.72198 23.90327 3031 ft 219 kts 81°
2026-05-01 07:33 56.72749 23.92664 2918 ft 192 kts 36°
2026-05-01 07:33 56.75076 23.93790 2635 ft 169 kts 14°
2026-05-01 07:34 56.76199 23.94278 2584 ft 166 kts
2026-05-01 07:34 56.78394 23.94808 2468 ft 149 kts
2026-05-01 07:34 56.79410 23.94982 2282 ft 144 kts
2026-05-01 07:35 56.80395 23.95139 2104 ft 141 kts
2026-05-01 07:35 56.81331 23.95340 1945 ft 131 kts
2026-05-01 07:35 56.82243 23.95471 1756 ft 131 kts
2026-05-01 07:35 56.83152 23.95599 1553 ft 130 kts
2026-05-01 07:36 56.84055 23.95745 1375 ft 132 kts
2026-05-01 07:36 56.84970 23.95897 1205 ft 132 kts
2026-05-01 07:36 56.85898 23.96055 1017 ft 134 kts
2026-05-01 07:36 56.86827 23.96206 823 ft 134 kts
2026-05-01 07:37 56.88692 23.96512 462 ft 132 kts
2026-05-01 07:37 56.89603 23.96668 265 ft 130 kts
2026-05-01 07:37 56.90504 23.96812 111 ft 131 kts
2026-05-01 07:38 56.91381 23.96953 45 ft 116 kts
2026-05-01 07:38 56.92043 23.97059 43 ft 75 kts
2026-05-01 07:38 56.92495 23.97291 42 ft 13 kts 34°
2026-05-01 07:39 56.92567 23.97384 42 ft 9 kts 36°
2026-05-01 07:39 56.92610 23.97467 43 ft 9 kts 72°
2026-05-01 07:39 56.92508 23.97533 43 ft 14 kts 185°
2026-05-01 07:40 56.92383 23.97507 43 ft 20 kts 188°
2026-05-01 07:40 56.92244 23.97480 43 ft 20 kts 185°
2026-05-01 07:40 56.92140 23.97525 43 ft 14 kts 96°
2026-05-01 07:40 56.92137 23.97627 42 ft 7 kts 88°
2026-05-01 07:41 56.92150 23.97653 43 ft 3 kts 27°
2026-05-01 07:41 56.92182 23.97662 43 ft 2 kts
2026-05-01 07:41 56.92191 23.97663 42 ft 0 kts